Location: Elstree
(51.6403°N, 0.2969°W)
Time: 21:33:31
(UTC+00:00)

CZ-2C R/B - Visible Passes

Search period start: 24 June 2021 00:00
Search period end: 04 July 2021 00:00
Orbit: 785 x 869 km, 98.2° (Epoch: 24 June)

Date Brightness Start Highest point End Pass type
(mag) Time Alt. Az. Time Alt. Az. Time Alt. Az.
24 Jun 6.3 21:29:00 10° NNW 21:30:12 11° NW 21:31:24 10° WNW visible
25 Jun 6.0 21:09:12 10° NNW 21:11:57 14° NW 21:14:39 10° WNW visible
30 Jun 6.2 21:16:57 10° NNW 21:19:02 12° NW 21:21:07 10° WNW visible
